owner,sensor,date,latitude,longitude,vertical_datum,mass_concentration_of_oxygen_in_sea_water,qcFlag 
SCCF RECON,ioos:station:SCCF:12:1,2008-10-09T15:00:00Z,26.4966,-82.1479,2.432,2.16,1111122 
SCCF RECON,ioos:station:SCCF:12:1,2008-10-09T16:00:00Z,26.4966,-82.1479,2.37,2.01,1111122 
SCCF RECON,ioos:station:SCCF:12:1,2008-10-09T17:00:00Z,26.4966,-82.1479,2.27,2.53,1111122 
SCCF RECON,ioos:station:SCCF:12:1,2008-10-09T18:00:00Z,26.4966,-82.1479,2.16,2.74,1111122 
SCCF RECON,ioos:station:SCCF:12:1,2008-10-09T19:00:00Z,26.4966,-82.1479,2.06,2.67,1111122 
SCCF RECON,ioos:station:SCCF:12:1,2008-10-09T20:00:00Z,26.4966,-82.1479,1.985,1.67,1111122 
SCCF RECON,ioos:station:SCCF:12:1,2008-10-09T21:00:00Z,26.4966,-82.1479,1.958,1.53,1111122 
SCCF RECON,ioos:station:SCCF:12:1,2008-10-09T22:00:00Z,26.4966,-82.1479,2.01,1.58,1111122 
SCCF RECON,ioos:station:SCCF:12:1,2008-10-09T23:00:00Z,26.4966,-82.1479,2.12,2.11,1111122 
SCCF RECON,ioos:station:SCCF:12:1,2008-10-10T00:00:00Z,26.4966,-82.1479,2.23,2.45,1111122 
SCCF RECON,ioos:station:SCCF:12:1,2008-10-10T01:00:00Z,26.4966,-82.1479,2.338,2.32,1111122 
SCCF RECON,ioos:station:SCCF:12:1,2008-10-10T02:00:00Z,26.4966,-82.1479,2.41,3.04,1111122 
SCCF RECON,ioos:station:SCCF:12:1,2008-10-10T03:00:00Z,26.4966,-82.1479,2.45,3.45,1111122 
SCCF RECON,ioos:station:SCCF:12:1,2008-10-10T04:00:00Z,26.4966,-82.1479,2.45,3.04,1111122 
SCCF RECON,ioos:station:SCCF:12:1,2008-10-10T05:00:00Z,26.4966,-82.1479,2.39,2.63,1111122 
SCCF RECON,ioos:station:SCCF:12:1,2008-10-10T06:00:00Z,26.4966,-82.1479,2.34,1.57,1111122 
SCCF RECON,ioos:station:SCCF:12:1,2008-10-10T07:00:00Z,26.4966,-82.1479,2.28,1.34,1111122 
SCCF RECON,ioos:station:SCCF:12:1,2008-10-10T08:00:00Z,26.4966,-82.1479,2.23,1.17,1111122 
SCCF RECON,ioos:station:SCCF:12:1,2008-10-10T09:00:00Z,26.4966,-82.1479,2.21,1.25,1111122 
SCCF RECON,ioos:station:SCCF:12:1,2008-10-10T10:00:00Z,26.4966,-82.1479,2.25,1.32,1111122 
SCCF RECON,ioos:station:SCCF:12:1,2008-10-10T11:00:00Z,26.4966,-82.1479,2.341,1.3,1111122 
SCCF RECON,ioos:station:SCCF:12:1,2008-10-10T12:00:00Z,26.4966,-82.1479,2.42,2.34,1111122 
SCCF RECON,ioos:station:SCCF:12:1,2008-10-10T13:00:00Z,26.4966,-82.1479,2.47,1.19,1111122 
SCCF RECON,ioos:station:SCCF:12:1,2008-10-10T14:00:00Z,26.4966,-82.1479,2.49,2.08,1111122 
SCCF RECON,ioos:station:SCCF:12:1,2008-10-10T15:00:00Z,26.4966,-82.1479,2.464,1.91,1111122 
SCCF RECON,ioos:station:SCCF:12:1,2008-10-10T16:00:00Z,26.4966,-82.1479,2.404,2.41,1111122 
SCCF RECON,ioos:station:SCCF:12:1,2008-10-10T17:00:00Z,26.4966,-82.1479,2.32,2.53,1111122 
SCCF RECON,ioos:station:SCCF:12:1,2008-10-10T18:00:00Z,26.4966,-82.1479,2.21,2.8,1111122 
SCCF RECON,ioos:station:SCCF:12:1,2008-10-10T19:00:00Z,26.4966,-82.1479,2.094,3.05,1111122 
SCCF RECON,ioos:station:SCCF:12:1,2008-10-10T20:00:00Z,26.4966,-82.1479,1.99,2.18,1111122 
SCCF RECON,ioos:station:SCCF:12:1,2008-10-10T21:00:00Z,26.4966,-82.1479,1.92,1.79,1111122 
SCCF RECON,ioos:station:SCCF:12:1,2008-10-10T22:00:00Z,26.4966,-82.1479,1.92,1.74,1111122 
SCCF RECON,ioos:station:SCCF:12:1,2008-10-10T23:00:00Z,26.4966,-82.1479,2.01,1.39,1111122 
SCCF RECON,ioos:station:SCCF:12:1,2008-10-11T00:00:00Z,26.4966,-82.1479,2.14,2.06,1111122 
SCCF RECON,ioos:station:SCCF:12:1,2008-10-11T01:00:00Z,26.4966,-82.1479,2.256,4.69,1111122 
SCCF RECON,ioos:station:SCCF:12:1,2008-10-11T02:00:00Z,26.4966,-82.1479,2.35,5.21,1111122 
SCCF RECON,ioos:station:SCCF:12:1,2008-10-11T03:00:00Z,26.4966,-82.1479,2.41,5.0,1111122 
SCCF RECON,ioos:station:SCCF:12:1,2008-10-11T04:00:00Z,26.4966,-82.1479,2.446,5.11,1111122 
SCCF RECON,ioos:station:SCCF:12:1,2008-10-11T05:00:00Z,26.4966,-82.1479,2.425,4.96,1111122 
SCCF RECON,ioos:station:SCCF:12:1,2008-10-11T06:00:00Z,26.4966,-82.1479,2.344,6.37,1111122 
SCCF RECON,ioos:station:SCCF:12:1,2008-10-11T07:00:00Z,26.4966,-82.1479,2.23,6.42,1111122 
SCCF RECON,ioos:station:SCCF:12:1,2008-10-11T08:00:00Z,26.4966,-82.1479,2.135,6.2,1111122 
SCCF RECON,ioos:station:SCCF:12:1,2008-10-11T09:00:00Z,26.4966,-82.1479,2.08,6.02,1111122 
SCCF RECON,ioos:station:SCCF:12:1,2008-10-11T10:00:00Z,26.4966,-82.1479,2.107,5.34,1111122 
SCCF RECON,ioos:station:SCCF:12:1,2008-10-11T11:00:00Z,26.4966,-82.1479,2.19,4.85,1111122 
SCCF RECON,ioos:station:SCCF:12:1,2008-10-11T12:00:00Z,26.4966,-82.1479,2.289,4.99,1111122 
SCCF RECON,ioos:station:SCCF:12:1,2008-10-11T13:00:00Z,26.4966,-82.1479,2.4,4.35,1111122 
SCCF RECON,ioos:station:SCCF:12:1,2008-10-11T14:00:00Z,26.4966,-82.1479,2.49,4.46,1111122 
SCCF RECON,ioos:station:SCCF:12:1,2008-10-11T15:00:00Z,26.4966,-82.1479,2.515,5.04,1111122 
SCCF RECON,ioos:station:SCCF:12:1,2008-10-11T16:00:00Z,26.4966,-82.1479,2.488,4.63,1111122 
SCCF RECON,ioos:station:SCCF:12:1,2008-10-11T17:00:00Z,26.4966,-82.1479,2.413,5.09,1111122 
SCCF RECON,ioos:station:SCCF:12:1,2008-10-11T18:00:00Z,26.4966,-82.1479,2.313,6.4,1111122 
SCCF RECON,ioos:station:SCCF:12:1,2008-10-11T19:00:00Z,26.4966,-82.1479,2.191,5.46,1111122 
SCCF RECON,ioos:station:SCCF:12:1,2008-10-11T20:00:00Z,26.4966,-82.1479,2.068,7.17,1111122 
SCCF RECON,ioos:station:SCCF:12:1,2008-10-11T21:00:00Z,26.4966,-82.1479,1.971,8.36,1111122 
SCCF RECON,ioos:station:SCCF:12:1,2008-10-11T22:00:00Z,26.4966,-82.1479,1.918,7.76,1111122 
SCCF RECON,ioos:station:SCCF:12:1,2008-10-11T23:00:00Z,26.4966,-82.1479,1.924,6.53,1111122 
SCCF RECON,ioos:station:SCCF:12:1,2008-10-12T00:00:00Z,26.4966,-82.1479,2.018,5.59,1111122 
SCCF RECON,ioos:station:SCCF:12:1,2008-10-12T01:00:00Z,26.4966,-82.1479,2.162,5.58,1111122 
SCCF RECON,ioos:station:SCCF:12:1,2008-10-12T02:00:00Z,26.4966,-82.1479,2.283,5.64,1111122 
SCCF RECON,ioos:station:SCCF:12:1,2008-10-12T03:00:00Z,26.4966,-82.1479,2.401,5.58,1111122 
SCCF RECON,ioos:station:SCCF:12:1,2008-10-12T04:00:00Z,26.4966,-82.1479,2.465,5.32,1111122 
SCCF RECON,ioos:station:SCCF:12:1,2008-10-12T05:00:00Z,26.4966,-82.1479,2.43,5.04,1111122 
SCCF RECON,ioos:station:SCCF:12:1,2008-10-12T06:00:00Z,26.4966,-82.1479,2.34,5.31,1111122 
SCCF RECON,ioos:station:SCCF:12:1,2008-10-12T07:00:00Z,26.4966,-82.1479,2.23,5.58,1111122 
SCCF RECON,ioos:station:SCCF:12:1,2008-10-12T08:00:00Z,26.4966,-82.1479,2.116,5.47,1111122 
SCCF RECON,ioos:station:SCCF:12:1,2008-10-12T09:00:00Z,26.4966,-82.1479,2.028,5.17,1111122 
SCCF RECON,ioos:station:SCCF:12:1,2008-10-12T10:00:00Z,26.4966,-82.1479,1.98,5.22,1111122 
SCCF RECON,ioos:station:SCCF:12:1,2008-10-12T11:00:00Z,26.4966,-82.1479,2.02,5.19,1111122 
SCCF RECON,ioos:station:SCCF:12:1,2008-10-12T12:00:00Z,26.4966,-82.1479,2.132,4.85,1111122 
SCCF RECON,ioos:station:SCCF:12:1,2008-10-12T13:00:00Z,26.4966,-82.1479,2.28,4.72,1111122 
SCCF RECON,ioos:station:SCCF:12:1,2008-10-12T14:00:00Z,26.4966,-82.1479,2.403,4.79,1111122 
SCCF RECON,ioos:station:SCCF:12:1,2008-10-12T15:00:00Z,26.4966,-82.1479,2.471,4.95,1111122 
SCCF RECON,ioos:station:SCCF:12:1,2008-10-12T16:00:00Z,26.4966,-82.1479,2.521,4.96,1111122 
SCCF RECON,ioos:station:SCCF:12:1,2008-10-12T17:00:00Z,26.4966,-82.1479,2.509,5.8,1111122 
SCCF RECON,ioos:station:SCCF:12:1,2008-10-12T18:00:00Z,26.4966,-82.1479,2.447,5.58,1111122 
SCCF RECON,ioos:station:SCCF:12:1,2008-10-12T19:00:00Z,26.4966,-82.1479,2.34,5.67,1111122 
SCCF RECON,ioos:station:SCCF:12:1,2008-10-12T20:00:00Z,26.4966,-82.1479,2.223,6.27,1111122 
SCCF RECON,ioos:station:SCCF:12:1,2008-10-12T21:00:00Z,26.4966,-82.1479,2.115,6.61,1111122 
SCCF RECON,ioos:station:SCCF:12:1,2008-10-12T22:00:00Z,26.4966,-82.1479,2.035,7.23,1111122 
SCCF RECON,ioos:station:SCCF:12:1,2008-10-12T23:00:00Z,26.4966,-82.1479,2.043,7.13,1111122 
SCCF RECON,ioos:station:SCCF:12:1,2008-10-13T00:00:00Z,26.4966,-82.1479,2.102,6.8,1111122 
SCCF RECON,ioos:station:SCCF:12:1,2008-10-13T01:00:00Z,26.4966,-82.1479,2.262,6.44,1111122 
SCCF RECON,ioos:station:SCCF:12:1,2008-10-13T02:00:00Z,26.4966,-82.1479,2.393,6.04,1111122 
SCCF RECON,ioos:station:SCCF:12:1,2008-10-13T03:00:00Z,26.4966,-82.1479,2.479,5.95,1111122 
SCCF RECON,ioos:station:SCCF:12:1,2008-10-13T04:00:00Z,26.4966,-82.1479,2.517,6.2,1111122 
SCCF RECON,ioos:station:SCCF:12:1,2008-10-13T05:00:00Z,26.4966,-82.1479,2.49,6.12,1111122 
SCCF RECON,ioos:station:SCCF:12:1,2008-10-13T06:00:00Z,26.4966,-82.1479,2.409,5.94,1111122 
SCCF RECON,ioos:station:SCCF:12:1,2008-10-13T07:00:00Z,26.4966,-82.1479,2.3,5.9,1111122 
SCCF RECON,ioos:station:SCCF:12:1,2008-10-13T08:00:00Z,26.4966,-82.1479,2.146,5.81,1111122 
SCCF RECON,ioos:station:SCCF:12:1,2008-10-13T09:00:00Z,26.4966,-82.1479,2.0,5.61,1111122 
SCCF RECON,ioos:station:SCCF:12:1,2008-10-13T10:00:00Z,26.4966,-82.1479,1.903,5.7,1111122 
SCCF RECON,ioos:station:SCCF:12:1,2008-10-13T11:00:00Z,26.4966,-82.1479,1.851,5.52,1111122 
SCCF RECON,ioos:station:SCCF:12:1,2008-10-13T12:00:00Z,26.4966,-82.1479,1.892,5.33,1111122 
SCCF RECON,ioos:station:SCCF:12:1,2008-10-13T13:00:00Z,26.4966,-82.1479,2.065,5.25,1111122 
SCCF RECON,ioos:station:SCCF:12:1,2008-10-13T14:00:00Z,26.4966,-82.1479,2.247,5.1,1111122 
SCCF RECON,ioos:station:SCCF:12:1,2008-10-13T15:00:00Z,26.4966,-82.1479,2.37,5.46,1111122 
SCCF RECON,ioos:station:SCCF:12:1,2008-10-13T16:00:00Z,26.4966,-82.1479,2.419,5.62,1111122 
SCCF RECON,ioos:station:SCCF:12:1,2008-10-13T17:00:00Z,26.4966,-82.1479,2.42,5.96,1111122 
SCCF RECON,ioos:station:SCCF:12:1,2008-10-13T18:00:00Z,26.4966,-82.1479,2.362,6.17,1111122 
SCCF RECON,ioos:station:SCCF:12:1,2008-10-13T19:00:00Z,26.4966,-82.1479,2.296,6.14,1111122 
SCCF RECON,ioos:station:SCCF:12:1,2008-10-13T20:00:00Z,26.4966,-82.1479,2.244,6.09,1111122 
SCCF RECON,ioos:station:SCCF:12:1,2008-10-13T21:00:00Z,26.4966,-82.1479,2.113,6.12,1111122 
SCCF RECON,ioos:station:SCCF:12:1,2008-10-13T22:00:00Z,26.4966,-82.1479,2.062,6.03,1111122 
SCCF RECON,ioos:station:SCCF:12:1,2008-10-13T23:00:00Z,26.4966,-82.1479,2.002,5.94,1111122 
SCCF RECON,ioos:station:SCCF:12:1,2008-10-14T00:00:00Z,26.4966,-82.1479,2.054,5.88,1111122 
SCCF RECON,ioos:station:SCCF:12:1,2008-10-14T01:00:00Z,26.4966,-82.1479,2.159,6.24,1111122 
SCCF RECON,ioos:station:SCCF:12:1,2008-10-14T02:00:00Z,26.4966,-82.1479,2.297,5.96,1111122 
SCCF RECON,ioos:station:SCCF:12:1,2008-10-14T03:00:00Z,26.4966,-82.1479,2.421,5.79,1111122 
SCCF RECON,ioos:station:SCCF:12:1,2008-10-14T04:00:00Z,26.4966,-82.1479,2.482,5.63,1111122 
SCCF RECON,ioos:station:SCCF:12:1,2008-10-14T05:00:00Z,26.4966,-82.1479,2.52,5.61,1111122 
SCCF RECON,ioos:station:SCCF:12:1,2008-10-14T06:00:00Z,26.4966,-82.1479,2.47,5.66,1111122 
SCCF RECON,ioos:station:SCCF:12:1,2008-10-14T07:00:00Z,26.4966,-82.1479,2.35,5.56,1111122 
SCCF RECON,ioos:station:SCCF:12:1,2008-10-14T08:00:00Z,26.4966,-82.1479,2.189,5.51,1111122 
SCCF RECON,ioos:station:SCCF:12:1,2008-10-14T09:00:00Z,26.4966,-82.1479,2.05,5.5,1111122 
SCCF RECON,ioos:station:SCCF:12:1,2008-10-14T10:00:00Z,26.4966,-82.1479,1.941,5.55,1111122 
SCCF RECON,ioos:station:SCCF:12:1,2008-10-14T11:00:00Z,26.4966,-82.1479,1.839,5.38,1111122 
SCCF RECON,ioos:station:SCCF:12:1,2008-10-14T12:00:00Z,26.4966,-82.1479,1.789,5.36,1111122 
SCCF RECON,ioos:station:SCCF:12:1,2008-10-14T13:00:00Z,26.4966,-82.1479,1.88,5.38,1111122 
SCCF RECON,ioos:station:SCCF:12:1,2008-10-14T14:00:00Z,26.4966,-82.1479,2.073,5.4,1111122 
SCCF RECON,ioos:station:SCCF:12:1,2008-10-14T15:00:00Z,26.4966,-82.1479,2.248,5.33,1111122 
SCCF RECON,ioos:station:SCCF:12:1,2008-10-14T16:00:00Z,26.4966,-82.1479,2.373,5.67,1111122 
SCCF RECON,ioos:station:SCCF:12:1,2008-10-14T17:00:00Z,26.4966,-82.1479,2.461,5.82,1111122 
SCCF RECON,ioos:station:SCCF:12:1,2008-10-14T18:00:00Z,26.4966,-82.1479,2.435,5.8,1111122 
SCCF RECON,ioos:station:SCCF:12:1,2008-10-14T19:00:00Z,26.4966,-82.1479,2.383,5.93,1111122 
SCCF RECON,ioos:station:SCCF:12:1,2008-10-14T20:00:00Z,26.4966,-82.1479,2.329,5.71,1111122 
SCCF RECON,ioos:station:SCCF:12:1,2008-10-14T21:00:00Z,26.4966,-82.1479,2.256,6.62,1111122 
SCCF RECON,ioos:station:SCCF:12:1,2008-10-14T22:00:00Z,26.4966,-82.1479,2.166,6.59,1111122 
SCCF RECON,ioos:station:SCCF:12:1,2008-10-14T23:00:00Z,26.4966,-82.1479,2.09,6.43,1111122 
SCCF RECON,ioos:station:SCCF:12:1,2008-10-15T00:00:00Z,26.4966,-82.1479,2.05,6.69,1111122 
SCCF RECON,ioos:station:SCCF:12:1,2008-10-15T01:00:00Z,26.4966,-82.1479,2.096,6.39,1111122 
SCCF RECON,ioos:station:SCCF:12:1,2008-10-15T02:00:00Z,26.4966,-82.1479,2.233,5.87,1111122 
SCCF RECON,ioos:station:SCCF:12:1,2008-10-15T03:00:00Z,26.4966,-82.1479,2.37,5.74,1111122 
SCCF RECON,ioos:station:SCCF:12:1,2008-10-15T04:00:00Z,26.4966,-82.1479,2.48,5.73,1111122 
SCCF RECON,ioos:station:SCCF:12:1,2008-10-15T05:00:00Z,26.4966,-82.1479,2.526,5.79,1111122 
SCCF RECON,ioos:station:SCCF:12:1,2008-10-15T06:00:00Z,26.4966,-82.1479,2.477,5.72,1111122 
SCCF RECON,ioos:station:SCCF:12:1,2008-10-15T07:00:00Z,26.4966,-82.1479,2.376,5.95,1111122 
SCCF RECON,ioos:station:SCCF:12:1,2008-10-15T08:00:00Z,26.4966,-82.1479,2.254,5.88,1111122 
SCCF RECON,ioos:station:SCCF:12:1,2008-10-15T09:00:00Z,26.4966,-82.1479,2.116,5.81,1111122 
SCCF RECON,ioos:station:SCCF:12:1,2008-10-15T10:00:00Z,26.4966,-82.1479,1.991,5.77,1111122 
SCCF RECON,ioos:station:SCCF:12:1,2008-10-15T11:00:00Z,26.4966,-82.1479,1.857,5.73,1111122 
SCCF RECON,ioos:station:SCCF:12:1,2008-10-15T12:00:00Z,26.4966,-82.1479,1.757,5.55,1111122 
SCCF RECON,ioos:station:SCCF:12:1,2008-10-15T13:00:00Z,26.4966,-82.1479,1.711,5.6,1111122 
SCCF RECON,ioos:station:SCCF:12:1,2008-10-15T14:00:00Z,26.4966,-82.1479,1.837,5.6,1111122 
SCCF RECON,ioos:station:SCCF:12:1,2008-10-15T15:00:00Z,26.4966,-82.1479,2.044,5.29,1111122 
SCCF RECON,ioos:station:SCCF:12:1,2008-10-15T16:00:00Z,26.4966,-82.1479,2.216,5.81,1111122 
SCCF RECON,ioos:station:SCCF:12:1,2008-10-15T17:00:00Z,26.4966,-82.1479,2.346,6.11,1111122 
SCCF RECON,ioos:station:SCCF:12:1,2008-10-15T18:00:00Z,26.4966,-82.1479,2.43,6.09,1111122 
SCCF RECON,ioos:station:SCCF:12:1,2008-10-15T19:00:00Z,26.4966,-82.1479,2.452,6.45,1111122 
SCCF RECON,ioos:station:SCCF:12:1,2008-10-15T20:00:00Z,26.4966,-82.1479,2.42,6.31,1111122 
SCCF RECON,ioos:station:SCCF:12:1,2008-10-15T21:00:00Z,26.4966,-82.1479,2.338,6.53,1111122 
SCCF RECON,ioos:station:SCCF:12:1,2008-10-15T22:00:00Z,26.4966,-82.1479,2.272,6.23,1111122 
SCCF RECON,ioos:station:SCCF:12:1,2008-10-15T23:00:00Z,26.4966,-82.1479,2.25,6.24,1111122 
SCCF RECON,ioos:station:SCCF:12:1,2008-10-16T00:00:00Z,26.4966,-82.1479,2.259,5.92,1111122 
SCCF RECON,ioos:station:SCCF:12:1,2008-10-16T01:00:00Z,26.4966,-82.1479,2.292,6.28,1111122 
SCCF RECON,ioos:station:SCCF:12:1,2008-10-16T02:00:00Z,26.4966,-82.1479,2.359,5.97,1111122 
SCCF RECON,ioos:station:SCCF:12:1,2008-10-16T03:00:00Z,26.4966,-82.1479,2.462,5.92,1111122 
SCCF RECON,ioos:station:SCCF:12:1,2008-10-16T04:00:00Z,26.4966,-82.1479,2.57,5.77,1111122 
SCCF RECON,ioos:station:SCCF:12:1,2008-10-16T05:00:00Z,26.4966,-82.1479,2.655,5.63,1111122 
SCCF RECON,ioos:station:SCCF:12:1,2008-10-16T06:00:00Z,26.4966,-82.1479,2.674,5.74,1111122 
SCCF RECON,ioos:station:SCCF:12:1,2008-10-16T07:00:00Z,26.4966,-82.1479,2.599,5.77,1111122 
SCCF RECON,ioos:station:SCCF:12:1,2008-10-16T08:00:00Z,26.4966,-82.1479,2.497,5.97,1111122 
SCCF RECON,ioos:station:SCCF:12:1,2008-10-16T09:00:00Z,26.4966,-82.1479,2.346,6.29,1111122 
SCCF RECON,ioos:station:SCCF:12:1,2008-10-16T10:00:00Z,26.4966,-82.1479,2.185,6.19,1111122 
SCCF RECON,ioos:station:SCCF:12:1,2008-10-16T11:00:00Z,26.4966,-82.1479,2.039,6.07,1111122 
SCCF RECON,ioos:station:SCCF:12:1,2008-10-16T12:00:00Z,26.4966,-82.1479,1.918,5.91,1111122 
SCCF RECON,ioos:station:SCCF:12:1,2008-10-16T13:00:00Z,26.4966,-82.1479,1.83,5.94,1111122 
SCCF RECON,ioos:station:SCCF:12:1,2008-10-16T14:00:00Z,26.4966,-82.1479,1.801,5.6,1111122 
SCCF RECON,ioos:station:SCCF:12:1,2008-10-16T15:00:00Z,26.4966,-82.1479,1.935,5.23,1111122 
SCCF RECON,ioos:station:SCCF:12:1,2008-10-16T16:00:00Z,26.4966,-82.1479,2.127,5.44,1111122 
SCCF RECON,ioos:station:SCCF:12:1,2008-10-16T17:00:00Z,26.4966,-82.1479,2.257,5.81,1111122 
SCCF RECON,ioos:station:SCCF:12:1,2008-10-16T18:00:00Z,26.4966,-82.1479,2.358,5.7,1111122 
SCCF RECON,ioos:station:SCCF:12:1,2008-10-16T19:00:00Z,26.4966,-82.1479,2.43,7.15,1111122 
SCCF RECON,ioos:station:SCCF:12:1,2008-10-16T20:00:00Z,26.4966,-82.1479,2.472,6.71,1111122 
SCCF RECON,ioos:station:SCCF:12:1,2008-10-16T21:00:00Z,26.4966,-82.1479,2.442,6.53,1111122 
SCCF RECON,ioos:station:SCCF:12:1,2008-10-16T22:00:00Z,26.4966,-82.1479,2.37,6.64,1111122 
SCCF RECON,ioos:station:SCCF:12:1,2008-10-16T23:00:00Z,26.4966,-82.1479,2.318,6.22,1111122 
SCCF RECON,ioos:station:SCCF:12:1,2008-10-17T00:00:00Z,26.4966,-82.1479,2.293,5.77,1111122 
SCCF RECON,ioos:station:SCCF:12:1,2008-10-17T01:00:00Z,26.4966,-82.1479,2.34,6.04,1111122 
SCCF RECON,ioos:station:SCCF:12:1,2008-10-17T02:00:00Z,26.4966,-82.1479,2.409,5.98,1111122 
SCCF RECON,ioos:station:SCCF:12:1,2008-10-17T03:00:00Z,26.4966,-82.1479,2.507,6.2,1111122 
SCCF RECON,ioos:station:SCCF:12:1,2008-10-17T04:00:00Z,26.4966,-82.1479,2.628,6.2,1111122 
SCCF RECON,ioos:station:SCCF:12:1,2008-10-17T05:00:00Z,26.4966,-82.1479,2.7,6.15,1111122 
SCCF RECON,ioos:station:SCCF:12:1,2008-10-17T06:00:00Z,26.4966,-82.1479,2.71,6.02,1111122 
SCCF RECON,ioos:station:SCCF:12:1,2008-10-17T07:00:00Z,26.4966,-82.1479,2.66,6.04,1111122 
SCCF RECON,ioos:station:SCCF:12:1,2008-10-17T08:00:00Z,26.4966,-82.1479,2.57,6.01,1111122 
SCCF RECON,ioos:station:SCCF:12:1,2008-10-17T09:00:00Z,26.4966,-82.1479,2.44,6.14,1111122 
SCCF RECON,ioos:station:SCCF:12:1,2008-10-17T10:00:00Z,26.4966,-82.1479,2.293,6.25,1111122 
SCCF RECON,ioos:station:SCCF:12:1,2008-10-17T11:00:00Z,26.4966,-82.1479,2.152,6.27,1111122 
SCCF RECON,ioos:station:SCCF:12:1,2008-10-17T12:00:00Z,26.4966,-82.1479,2.02,6.01,1111122 
SCCF RECON,ioos:station:SCCF:12:1,2008-10-17T13:00:00Z,26.4966,-82.1479,1.896,6.38,1111122 
SCCF RECON,ioos:station:SCCF:12:1,2008-10-17T14:00:00Z,26.4966,-82.1479,1.8,6.51,1111122 
SCCF RECON,ioos:station:SCCF:12:1,2008-10-17T15:00:00Z,26.4966,-82.1479,1.803,6.18,1111122 
SCCF RECON,ioos:station:SCCF:12:1,2008-10-17T16:00:00Z,26.4966,-82.1479,1.971,7.22,1111122 
SCCF RECON,ioos:station:SCCF:12:1,2008-10-17T17:00:00Z,26.4966,-82.1479,2.139,5.99,1111122 
SCCF RECON,ioos:station:SCCF:12:1,2008-10-17T18:00:00Z,26.4966,-82.1479,2.251,6.1,1111122 
SCCF RECON,ioos:station:SCCF:12:1,2008-10-17T19:00:00Z,26.4966,-82.1479,2.339,6.51,1111122 
SCCF RECON,ioos:station:SCCF:12:1,2008-10-17T20:00:00Z,26.4966,-82.1479,2.399,7.69,1111122 
SCCF RECON,ioos:station:SCCF:12:1,2008-10-17T21:00:00Z,26.4966,-82.1479,2.408,6.32,1111122 
SCCF RECON,ioos:station:SCCF:12:1,2008-10-17T22:00:00Z,26.4966,-82.1479,2.371,5.8,1111122 
SCCF RECON,ioos:station:SCCF:12:1,2008-10-17T23:00:00Z,26.4966,-82.1479,2.33,5.75,1111122 
SCCF RECON,ioos:station:SCCF:12:1,2008-10-18T00:00:00Z,26.4966,-82.1479,2.32,5.48,1111122 
SCCF RECON,ioos:station:SCCF:12:1,2008-10-18T01:00:00Z,26.4966,-82.1479,2.34,6.01,1111122 
SCCF RECON,ioos:station:SCCF:12:1,2008-10-18T02:00:00Z,26.4966,-82.1479,2.369,6.05,1111122 
SCCF RECON,ioos:station:SCCF:12:1,2008-10-18T03:00:00Z,26.4966,-82.1479,2.421,5.54,1111122 
SCCF RECON,ioos:station:SCCF:12:1,2008-10-18T04:00:00Z,26.4966,-82.1479,2.512,5.73,1111122 
SCCF RECON,ioos:station:SCCF:12:1,2008-10-18T05:00:00Z,26.4966,-82.1479,2.62,5.96,1111122 
SCCF RECON,ioos:station:SCCF:12:1,2008-10-18T06:00:00Z,26.4966,-82.1479,2.691,6.7,1111122 
SCCF RECON,ioos:station:SCCF:12:1,2008-10-18T07:00:00Z,26.4966,-82.1479,2.719,6.48,1111122 
SCCF RECON,ioos:station:SCCF:12:1,2008-10-18T08:00:00Z,26.4966,-82.1479,2.67,6.32,1111122 
SCCF RECON,ioos:station:SCCF:12:1,2008-10-18T09:00:00Z,26.4966,-82.1479,2.57,6.31,1111122 
SCCF RECON,ioos:station:SCCF:12:1,2008-10-18T10:00:00Z,26.4966,-82.1479,2.44,6.28,1111122 
SCCF RECON,ioos:station:SCCF:12:1,2008-10-18T11:00:00Z,26.4966,-82.1479,2.28,6.17,1111122 
SCCF RECON,ioos:station:SCCF:12:1,2008-10-18T12:00:00Z,26.4966,-82.1479,2.14,5.86,1111122 
SCCF RECON,ioos:station:SCCF:12:1,2008-10-18T13:00:00Z,26.4966,-82.1479,2.0,5.69,1111122 
SCCF RECON,ioos:station:SCCF:12:1,2008-10-18T14:00:00Z,26.4966,-82.1479,1.88,5.09,1111122 
SCCF RECON,ioos:station:SCCF:12:1,2008-10-18T15:00:00Z,26.4966,-82.1479,1.797,5.01,1111122 
SCCF RECON,ioos:station:SCCF:12:1,2008-10-18T16:00:00Z,26.4966,-82.1479,1.811,5.63,1111122 
SCCF RECON,ioos:station:SCCF:12:1,2008-10-18T17:00:00Z,26.4966,-82.1479,1.959,6.62,1111122 
SCCF RECON,ioos:station:SCCF:12:1,2008-10-18T18:00:00Z,26.4966,-82.1479,2.107,5.76,1111122 
SCCF RECON,ioos:station:SCCF:12:1,2008-10-18T19:00:00Z,26.4966,-82.1479,2.221,6.88,1111122 
SCCF RECON,ioos:station:SCCF:12:1,2008-10-18T20:00:00Z,26.4966,-82.1479,2.29,7.63,1111122 
SCCF RECON,ioos:station:SCCF:12:1,2008-10-18T21:00:00Z,26.4966,-82.1479,2.321,8.28,1111122 
SCCF RECON,ioos:station:SCCF:12:1,2008-10-18T22:00:00Z,26.4966,-82.1479,2.327,6.95,1111122 
SCCF RECON,ioos:station:SCCF:12:1,2008-10-18T23:00:00Z,26.4966,-82.1479,2.338,5.34,1111122 
SCCF RECON,ioos:station:SCCF:12:1,2008-10-19T00:00:00Z,26.4966,-82.1479,2.33,6.03,1111122 
SCCF RECON,ioos:station:SCCF:12:1,2008-10-19T01:00:00Z,26.4966,-82.1479,2.325,6.3,1111122 
SCCF RECON,ioos:station:SCCF:12:1,2008-10-19T02:00:00Z,26.4966,-82.1479,2.325,6.53,1111122 
SCCF RECON,ioos:station:SCCF:12:1,2008-10-19T03:00:00Z,26.4966,-82.1479,2.356,7.25,1111122 
SCCF RECON,ioos:station:SCCF:12:1,2008-10-19T04:00:00Z,26.4966,-82.1479,2.403,5.91,1111122 
SCCF RECON,ioos:station:SCCF:12:1,2008-10-19T05:00:00Z,26.4966,-82.1479,2.484,5.21,1111122 
SCCF RECON,ioos:station:SCCF:12:1,2008-10-19T06:00:00Z,26.4966,-82.1479,2.577,5.66,1111122 
SCCF RECON,ioos:station:SCCF:12:1,2008-10-19T07:00:00Z,26.4966,-82.1479,2.646,5.72,1111122 
SCCF RECON,ioos:station:SCCF:12:1,2008-10-19T08:00:00Z,26.4966,-82.1479,2.633,5.87,1111122 
SCCF RECON,ioos:station:SCCF:12:1,2008-10-19T09:00:00Z,26.4966,-82.1479,2.562,5.82,1111122 
SCCF RECON,ioos:station:SCCF:12:1,2008-10-19T10:00:00Z,26.4966,-82.1479,2.469,5.6,1111122 
SCCF RECON,ioos:station:SCCF:12:1,2008-10-19T11:00:00Z,26.4966,-82.1479,2.339,5.68,1111122 
SCCF RECON,ioos:station:SCCF:12:1,2008-10-19T12:00:00Z,26.4966,-82.1479,2.207,5.66,1111122 
SCCF RECON,ioos:station:SCCF:12:1,2008-10-19T13:00:00Z,26.4966,-82.1479,2.082,5.76,1111122 
SCCF RECON,ioos:station:SCCF:12:1,2008-10-19T14:00:00Z,26.4966,-82.1479,1.958,5.68,1111122 
SCCF RECON,ioos:station:SCCF:12:1,2008-10-19T15:00:00Z,26.4966,-82.1479,1.827,5.61,1111122 
SCCF RECON,ioos:station:SCCF:12:1,2008-10-19T16:00:00Z,26.4966,-82.1479,1.728,6.13,1111122 
SCCF RECON,ioos:station:SCCF:12:1,2008-10-19T17:00:00Z,26.4966,-82.1479,1.701,6.25,1111122 
SCCF RECON,ioos:station:SCCF:12:1,2008-10-19T18:00:00Z,26.4966,-82.1479,1.824,6.32,1111122 
SCCF RECON,ioos:station:SCCF:12:1,2008-10-19T19:00:00Z,26.4966,-82.1479,1.984,6.27,1111122 
SCCF RECON,ioos:station:SCCF:12:1,2008-10-19T20:00:00Z,26.4966,-82.1479,2.101,6.49,1111122 
SCCF RECON,ioos:station:SCCF:12:1,2008-10-19T21:00:00Z,26.4966,-82.1479,2.19,6.46,1111122 
SCCF RECON,ioos:station:SCCF:12:1,2008-10-19T22:00:00Z,26.4966,-82.1479,2.261,6.82,1111122 
SCCF RECON,ioos:station:SCCF:12:1,2008-10-19T23:00:00Z,26.4966,-82.1479,2.292,6.54,1111122 
SCCF RECON,ioos:station:SCCF:12:1,2008-10-20T00:00:00Z,26.4966,-82.1479,2.29,6.08,1111122 
SCCF RECON,ioos:station:SCCF:12:1,2008-10-20T01:00:00Z,26.4966,-82.1479,2.279,6.21,1111122 
SCCF RECON,ioos:station:SCCF:12:1,2008-10-20T02:00:00Z,26.4966,-82.1479,2.28,6.2,1111122 
SCCF RECON,ioos:station:SCCF:12:1,2008-10-20T03:00:00Z,26.4966,-82.1479,2.301,6.2,1111122 
SCCF RECON,ioos:station:SCCF:12:1,2008-10-20T04:00:00Z,26.4966,-82.1479,2.358,6.14,1111122 
SCCF RECON,ioos:station:SCCF:12:1,2008-10-20T05:00:00Z,26.4966,-82.1479,2.388,6.05,1111122 
SCCF RECON,ioos:station:SCCF:12:1,2008-10-20T06:00:00Z,26.4966,-82.1479,2.422,5.92,1111122 
SCCF RECON,ioos:station:SCCF:12:1,2008-10-20T07:00:00Z,26.4966,-82.1479,2.467,5.74,1111122 
SCCF RECON,ioos:station:SCCF:12:1,2008-10-20T08:00:00Z,26.4966,-82.1479,2.502,5.7,1111122 
SCCF RECON,ioos:station:SCCF:12:1,2008-10-20T09:00:00Z,26.4966,-82.1479,2.52,5.94,1111122 
SCCF RECON,ioos:station:SCCF:12:1,2008-10-20T10:00:00Z,26.4966,-82.1479,2.499,5.65,1111122 
SCCF RECON,ioos:station:SCCF:12:1,2008-10-20T11:00:00Z,26.4966,-82.1479,2.453,5.61,1111122 